Location: Ahstedt
(52.2048°N, 10.1060°E)
Time: 07:18:06
(UTC+00:00)

Cosmos 2341 Rocket - Pass Details

Date: 18 January 2026
Orbit: 967 x 1004 km, 82.9° (Epoch: 18 February)

Event Time Altitude Azimuth Distance (km) Brightness Sun altitude
Rises 06:21:23 0° 203° (SSW) 3,719 7.1 -8.6°
Reaches altitude 10° 06:23:57 10° 207° (SSW) 2,774 6.4 -8.2°
Maximum altitude 06:30:13 57° 286° (WNW) 1,173 4.1 -7.3°
Drops below altitude 10° 06:36:32 10° 5° (N) 2,783 6.2 -6.5°
Sets 06:39:08 0° 9° (N) 3,732 6.9 -6.1°
